Wind_Speed
25 25 25 26 27 28 27 25 25 22 20 19 16 13 12 12 13 13 13 13 17 21 23 23 21 20 21 21 20 19 20 21 18 15 12 12 13 15 15 14 14 15 16
27 27 28 28 27 28 28 27 27 26 24 22 20 17 14 13 14 15 16 15 16 18 21 23 25 23 23 23 23 22 22 22 22 19 17 14 14 16 18 17 17 17 18
32 31 31 30 31 31 30 31 30 29 28 25 23 21 20 19 18 18 18 19 18 19 20 22 24 27 26 26 26 24 23 23 23 22 21 19 17 17 20 21 20 20 18
40 37 34 33 34 35 35 33 32 33 32 29 26 25 25 24 23 22 21 22 22 22 22 24 26 27 28 27 26 25 24 24 24 24 24 23 21 19 19 22 23 22 20
50 45 38 37 39 39 38 38 36 35 35 33 31 30 29 28 27 25 25 26 26 26 26 26 26 27 28 27 26 25 25 27 27 26 27 27 26 24 21 21 23 23 22
54 53 50 46 45 43 41 42 39 38 37 36 35 35 33 30 29 29 29 30 30 28 27 28 28 27 29 29 27 26 27 29 31 30 30 30 31 28 25 22 22 22 22
56 59 66 62 54 49 45 42 39 37 37 36 36 35 33 30 30 31 31 31 31 30 28 27 29 28 30 31 29 27 28 29 33 35 36 34 33 32 29 25 22 22 21
55 58 62 69 63 55 50 45 41 39 37 36 34 31 29 31 31 30 32 33 32 33 31 28 28 30 31 32 33 33 32 31 33 37 40 39 37 34 31 29 24 22 22
52 51 61 63 58 56 48 46 43 38 36 33 32 30 30 30 31 32 33 35 33 31 32 31 31 32 33 34 36 36 33 30 31 34 35 38 40 37 33 32 28 23 22
51 47 48 36 48 54 45 44 49 44 39 36 35 35 36 35 33 30 30 34 34 30 29 31 34 35 36 37 36 36 34 32 32 31 31 33 38 39 35 34 31 27 25
49 44 43 31 32 42 45 39 49 55 51 45 42 38 36 35 33 28 27 29 31 30 28 30 35 37 37 37 37 35 33 33 34 34 29 31 37 38 38 36 35 31 28
45 43 39 41 39 37 38 42 47 47 52 48 41 35 35 33 30 27 26 26 28 29 30 30 33 35 36 37 38 38 38 38 38 37 34 33 37 40 40 38 37 35 32
43 42 40 38 42 43 40 41 41 39 40 38 36 35 34 30 28 27 27 26 26 28 32 33 35 37 37 39 41 43 45 41 38 38 38 36 40 41 41 41 40 40 37
35 32 28 31 37 34 33 35 35 37 36 34 34 35 32 29 28 28 28 27 26 29 32 35 37 38 39 40 41 43 43 39 36 36 38 41 41 40 41 42 44 44 45
26 24 25 27 29 25 25 29 32 35 34 34 34 33 30 28 29 30 30 29 29 31 34 36 37 39 40 41 39 41 43 43 41 40 41 42 42 40 42 43 44 46 46
21 19 22 20 18 21 26 29 29 30 32 33 33 30 28 27 30 31 31 31 30 30 33 34 35 39 40 41 38 38 42 43 46 42 40 41 41 37 38 39 41 42 43
22 21 21 18 21 25 29 31 30 28 28 28 29 28 30 31 30 32 31 33 32 31 34 35 34 35 35 37 38 38 39 42 42 39 37 33 32 36 41 41 40 40 39
29 26 22 23 26 26 27 28 28 27 27 27 28 29 30 30 30 32 34 35 36 36 36 36 34 33 32 31 30 33 35 37 40 41 39 37 37 40 40 38 39 37 35
28 27 25 26 27 24 23 23 24 26 27 28 29 29 30 30 32 34 35 36 39 41 41 40 38 36 32 29 26 27 32 32 34 38 38 36 39 40 36 37 38 37 33
30 24 23 23 24 23 23 24 24 25 26 28 29 30 30 31 33 33 35 37 39 41 41 41 41 37 34 32 29 26 24 27 27 29 31 31 31 32 35 36 36 36 37
25 20 19 19 19 21 23 23 23 25 27 29 29 29 30 31 33 33 34 35 36 38 38 38 39 37 35 33 32 28 25 21 21 25 27 26 26 24 28 30 30 32 35
17 19 21 18 19 21 21 22 23 25 25 26 28 29 31 32 34 34 34 34 33 34 34 34 35 35 34 33 33 31 30 26 24 22 24 22 22 23 25 25 28 32 32
19 20 21 20 19 19 20 21 20 21 22 24 27 30 31 32 33 34 34 34 35 35 35 34 34 33 32 32 33 34 33 32 30 32 27 21 20 21 25 25 26 27 32
17 18 19 17 17 16 15 15 15 17 19 21 23 25 28 30 31 31 32 32 34 35 37 37 36 36 35 34 34 36 35 36 37 36 32 27 28 29 27 27 24 23 23
21 18 20 18 17 15 15 15 16 18 19 20 21 23 25 27 28 29 29 31 32 33 34 36 37 39 41 40 39 38 38 38 40 41 40 37 29 29 29 31 32 32 30
23 20 18 17 17 17 17 17 17 17 19 21 23 25 26 26 27 26 26 26 27 28 30 32 34 36 38 40 40 40 40 41 42 42 42 41 40 34 29 28 31 33 33
Wind_Direction
286 281 277 273 271 267 262 260 255 256 267 275 279 290 305 309 303 303 301 290 271 262 259 260 262 267 273 277 278 278 277 279 282 281 275 274 274 274 273 270 269 274 279
268 273 277 278 277 273 266 260 254 254 262 268 274 281 290 297 297 298 298 296 288 276 265 263 264 265 270 276 281 280 278 279 279 278 273 269 270 269 268 267 267 276 285
263 262 268 271 272 271 265 259 254 254 260 263 268 276 285 291 294 293 291 291 290 287 281 270 271 270 268 273 278 282 281 276 275 275 274 272 269 269 269 267 268 275 283
269 264 263 264 269 271 265 260 256 255 256 258 264 273 279 282 287 291 289 287 283 282 282 279 274 272 268 270 277 281 282 278 274 274 275 275 274 271 270 271 270 274 279
271 266 262 263 266 268 262 256 252 252 253 257 264 270 274 279 283 285 282 280 279 279 278 276 273 269 265 266 273 279 282 282 277 273 273 273 273 272 271 270 272 275 279
271 268 267 265 263 263 259 254 250 248 251 257 264 269 273 277 280 280 278 277 277 276 273 272 269 266 263 262 264 269 278 282 280 275 272 270 269 269 269 267 267 272 278
268 267 267 262 259 258 256 253 251 249 252 257 263 268 274 278 279 278 278 278 279 277 272 268 264 262 263 262 259 258 268 276 280 278 274 270 266 263 263 261 260 268 275
273 271 278 267 254 253 249 246 250 250 254 258 262 267 271 277 279 278 279 279 278 277 274 267 260 257 259 262 262 262 267 271 273 276 274 268 264 260 259 257 252 261 272
283 283 282 264 245 247 246 243 245 245 254 257 264 269 274 277 278 279 280 279 277 274 272 268 261 257 256 257 261 264 264 267 273 278 277 268 262 258 254 254 248 252 266
277 284 275 247 231 242 246 246 239 238 246 254 261 272 279 277 275 273 274 276 278 274 269 268 266 261 258 259 261 262 262 265 266 273 277 264 259 259 253 253 249 250 255
279 280 268 230 249 249 248 245 252 249 244 251 263 271 274 276 275 271 266 270 275 276 272 268 269 268 265 262 259 260 262 262 263 267 270 259 255 253 252 250 250 250 252
278 272 258 265 266 257 250 252 253 248 247 252 260 265 268 271 270 266 266 269 272 275 275 272 271 273 271 267 262 261 263 263 267 266 263 259 254 253 252 250 250 252 252
277 270 265 262 256 251 243 240 239 242 247 252 259 265 269 267 264 266 267 269 273 274 274 275 272 270 272 272 267 265 267 268 273 268 264 257 251 250 252 252 252 255 253
271 263 251 239 227 232 234 229 231 242 247 252 259 264 266 264 264 267 270 270 271 274 276 276 275 273 272 274 273 270 269 269 268 267 264 255 249 249 252 254 252 253 251
253 252 244 237 237 239 235 232 236 242 247 251 257 262 262 264 266 265 266 269 269 270 271 275 279 279 280 281 277 273 270 268 266 267 267 263 256 253 251 254 253 250 251
245 240 234 237 237 237 236 235 235 244 250 252 255 257 261 262 263 264 264 268 273 275 273 276 278 278 279 275 272 273 270 264 262 263 262 258 252 251 253 255 254 252 254
233 232 247 243 241 243 243 243 246 248 248 250 254 258 260 262 264 265 266 268 271 273 274 278 280 284 288 283 272 269 271 268 259 259 256 255 257 258 259 258 257 260 256
227 233 240 245 247 248 249 244 244 248 250 252 256 259 262 264 266 267 268 268 269 270 274 277 280 285 290 296 286 271 268 264 257 257 261 262 267 261 259 261 259 258 250
240 237 238 248 252 251 250 247 248 250 254 257 259 261 264 267 267 268 270 270 270 269 272 276 279 281 286 291 296 287 265 255 254 257 261 262 262 258 257 258 257 252 249
236 242 251 253 251 249 250 251 252 254 258 262 265 266 267 269 271 274 274 273 271 272 272 274 276 277 279 281 288 295 285 265 261 260 254 255 256 255 254 252 250 243 237
243 249 258 262 263 258 254 256 259 263 266 267 267 268 271 274 276 277 276 274 273 274 275 275 274 276 276 276 277 282 286 281 272 260 254 254 252 251 250 247 244 236 225
252 258 261 263 264 263 262 262 264 268 270 271 273 275 275 274 275 274 275 277 277 278 279 279 278 276 275 274 274 273 273 275 276 268 270 260 243 244 246 242 234 233 228
262 261 264 266 269 268 270 270 270 272 274 275 275 276 276 276 275 276 277 277 277 277 279 281 281 278 276 274 274 273 270 267 268 271 277 254 231 222 241 233 228 232 226
274 266 262 266 269 275 277 274 273 272 274 275 276 278 279 280 282 281 280 280 280 279 278 279 281 282 279 276 273 272 269 265 261 261 261 240 236 235 233 224 232 232 221
272 274 265 260 264 263 259 262 268 273 275 276 278 280 281 282 284 284 284 284 284 284 283 285 284 284 283 280 276 271 268 266 264 263 260 254 241 231 222 220 221 229 231
271 269 264 261 251 252 257 260 267 273 277 280 283 284 285 287 288 289 290 288 286 286 284 283 282 280 278 278 278 275 270 268 266 265 263 260 257 255 244 225 221 216 219
Height
5901 5900 5898 5897 5897 5897 5897 5896 5896 5896 5894 5893 5893 5892 5891 5888 5886 5884 5882 5881 5880 5878 5877 5878 5878 5878 5878 5877 5877 5877 5875 5874 5874 5873 5872 5872 5872 5871 5870 5870 5870 5871 5870
5893 5893 5892 5892 5892 5892 5892 5891 5891 5890 5889 5889 5888 5887 5886 5884 5882 5880 5878 5877 5875 5874 5874 5874 5874 5874 5874 5873 5873 5873 5872 5872 5871 5870 5869 5868 5867 5867 5867 5866 5866 5867 5866
5885 5884 5884 5884 5884 5885 5885 5885 5884 5885 5885 5884 5884 5882 5880 5879 5877 5875 5874 5872 5871 5870 5869 5869 5870 5869 5868 5867 5867 5868 5867 5867 5867 5866 5865 5865 5863 5863 5863 5863 5863 5862 5862
5878 5877 5877 5877 5876 5877 5878 5878 5879 5879 5878 5877 5877 5876 5875 5873 5871 5870 5870 5868 5866 5864 5864 5863 5862 5863 5862 5862 5862 5862 5862 5862 5862 5862 5861 5860 5860 5859 5859 5859 5859 5858 5858
5871 5870 5871 5870 5868 5869 5870 5869 5871 5872 5872 5872 5871 5870 5869 5868 5866 5865 5864 5862 5860 5859 5857 5857 5856 5856 5856 5857 5857 5857 5857 5858 5858 5858 5856 5855 5855 5856 5855 5854 5855 5855 5854
5864 5864 5862 5860 5859 5860 5861 5861 5861 5863 5863 5864 5865 5864 5862 5861 5859 5858 5856 5853 5851 5851 5850 5850 5850 5850 5850 5850 5850 5850 5851 5852 5852 5852 5852 5851 5850 5850 5850 5849 5849 5850 5850
5855 5855 5853 5849 5847 5848 5850 5851 5854 5856 5855 5854 5855 5855 5855 5853 5851 5850 5847 5846 5844 5843 5843 5842 5843 5843 5843 5843 5843 5843 5843 5844 5844 5844 5844 5843 5842 5843 5844 5843 5843 5843 5844
5844 5840 5835 5833 5834 5834 5836 5839 5843 5846 5847 5845 5845 5847 5848 5845 5842 5842 5839 5837 5837 5836 5836 5835 5835 5835 5835 5835 5836 5837 5837 5836 5836 5836 5835 5834 5833 5834 5836 5837 5835 5836 5837
5829 5824 5814 5811 5817 5820 5825 5828 5833 5836 5837 5836 5836 5838 5840 5837 5835 5834 5832 5829 5827 5829 5828 5827 5827 5826 5826 5826 5826 5826 5827 5826 5827 5826 5825 5825 5825 5825 5826 5827 5828 5828 5829
5812 5807 5802 5796 5805 5810 5816 5818 5821 5824 5827 5827 5826 5827 5829 5829 5827 5826 5824 5821 5818 5819 5818 5818 5818 5816 5816 5818 5818 5818 5819 5818 5817 5816 5816 5816 5817 5818 5819 5819 5820 5820 5821
5799 5799 5797 5801 5803 5802 5806 5807 5810 5812 5815 5817 5819 5818 5817 5817 5817 5818 5816 5813 5811 5808 5808 5808 5808 5807 5806 5808 5808 5808 5809 5809 5809 5808 5807 5807 5808 5810 5811 5812 5813 5814 5814
5785 5786 5789 5791 5791 5792 5795 5798 5800 5800 5804 5808 5810 5811 5809 5808 5809 5809 5808 5806 5803 5801 5800 5799 5799 5798 5799 5798 5799 5798 5798 5797 5799 5799 5798 5797 5799 5800 5804 5805 5806 5807 5808
5771 5772 5773 5774 5776 5780 5784 5786 5789 5792 5796 5800 5801 5801 5800 5801 5802 5802 5800 5798 5795 5793 5792 5791 5790 5789 5790 5788 5789 5790 5788 5788 5790 5789 5788 5788 5789 5791 5794 5797 5798 5799 5800
5759 5759 5759 5761 5764 5769 5773 5774 5779 5784 5788 5791 5791 5791 5791 5791 5792 5793 5793 5791 5788 5787 5786 5783 5782 5781 5779 5777 5778 5779 5779 5777 5777 5779 5778 5777 5778 5780 5783 5787 5789 5790 5792
5752 5753 5753 5755 5757 5760 5765 5768 5773 5778 5780 5781 5783 5782 5782 5781 5783 5782 5782 5782 5781 5779 5779 5776 5774 5772 5771 5770 5770 5770 5768 5769 5768 5768 5768 5767 5768 5770 5771 5774 5778 5780 5781
5743 5744 5746 5748 5752 5756 5759 5763 5767 5770 5771 5773 5775 5775 5775 5772 5773 5773 5773 5772 5771 5770 5769 5767 5765 5764 5761 5759 5758 5757 5756 5757 5757 5756 5756 5756 5757 5760 5761 5763 5766 5768 5771
5736 5738 5741 5743 5748 5752 5755 5758 5761 5761 5763 5765 5767 5767 5768 5766 5765 5764 5764 5764 5763 5762 5760 5759 5757 5755 5753 5750 5748 5746 5745 5745 5744 5745 5745 5747 5749 5751 5752 5754 5755 5758 5760
5730 5733 5735 5740 5743 5745 5747 5749 5752 5754 5755 5756 5758 5759 5759 5757 5755 5754 5754 5754 5753 5753 5753 5751 5749 5747 5745 5742 5738 5736 5734 5733 5733 5735 5736 5738 5739 5742 5744 5745 5746 5748 5751
5726 5729 5731 5734 5737 5739 5740 5741 5743 5745 5747 5749 5749 5750 5749 5747 5746 5745 5745 5744 5744 5745 5744 5742 5739 5739 5738 5735 5731 5728 5725 5723 5723 5726 5727 5728 5729 5731 5734 5736 5738 5741 5744
5719 5723 5726 5730 5732 5733 5733 5735 5736 5738 5739 5740 5741 5741 5741 5740 5739 5737 5737 5737 5736 5736 5735 5733 5731 5730 5729 5727 5725 5723 5718 5716 5716 5717 5718 5719 5720 5722 5724 5727 5730 5733 5736
5715 5717 5721 5724 5726 5727 5728 5730 5731 5732 5732 5732 5733 5732 5732 5733 5731 5730 5730 5730 5729 5728 5726 5726 5724 5723 5722 5721 5720 5717 5714 5711 5711 5711 5712 5712 5714 5715 5716 5719 5722 5724 5728
5710 5713 5716 5719 5721 5722 5723 5725 5725 5725 5726 5725 5725 5725 5724 5724 5724 5724 5722 5721 5721 5720 5718 5716 5715 5714 5714 5713 5713 5711 5709 5706 5706 5705 5704 5704 5705 5707 5709 5710 5713 5717 5721
5704 5708 5712 5714 5715 5716 5717 5718 5717 5718 5718 5718 5718 5718 5717 5717 5716 5715 5713 5711 5711 5710 5709 5707 5707 5704 5703 5703 5702 5702 5701 5699 5698 5696 5696 5696 5698 5702 5700 5703 5705 5709 5713
5701 5703 5707 5707 5709 5710 5711 5712 5713 5712 5711 5711 5712 5712 5711 5710 5708 5707 5705 5703 5702 5701 5700 5698 5697 5695 5693 5693 5693 5693 5693 5692 5689 5688 5690 5692 5693 5692 5693 5697 5698 5702 5706
5695 5697 5700 5702 5704 5705 5707 5707 5707 5707 5706 5706 5706 5706 5705 5703 5702 5700 5699 5697 5694 5692 5690 5688 5686 5684 5682 5682 5683 5684 5683 5682 5681 5680 5680 5682 5684 5686 5686 5688 5689 5694 5699
5689 5692 5694 5696 5698 5699 5699 5700 5701 5701 5700 5700 5700 5700 5699 5697 5696 5694 5692 5689 5685 5683 5680 5678 5676 5674 5673 5671 5670 5671 5671 5672 5672 5671 5670 5673 5675 5677 5679 5682 5684 5686 5690